User: anonymous   Login
Location: Unspecified
(0.0000°N, 0.0000°E)
Time: 19:21:55
(UTC+00:00)
Language:

Vela 3B - Orbit

View from above orbital plane
View from above orbital plane
View from above satellite
View from above satellite

Ground track
Ground track

The orbit data is extracted from the following two-line orbital elements,

1 01459U 65058B   16121.89028506 -.00000802  00000-0  00000+0 0  9992
2 01459   6.8757  64.7454 4450103 289.9233   1.4161  0.21413837 40126
Epoch (UTC): 30 April 2016 21:22:00
Eccentricity: 0.4450103
inclination: 6.8757°
perigee height: 59118 km
apogee height: 164153 km
right ascension of ascending node: 64.7454°
argument of perigee: 289.9233°
revolutions per day: 0.21413837
mean anomaly at epoch: 1.4161°
orbit number at epoch: 4012

The dashed part of the orbit path shows where the satellite is in the earth's shadow,  

DLR